Simultaneous Nadir Overpasses (SNOs) Predictions

Prediction of SNOs between NOAA-19 and TERRA Satellite Orbit:

Table of predicted SNOs for the next 14.0 days since TLE Epoch: 1/23/2021
Index Date (NOAA-19) Time (NOAA-19) Lat,Lon (NOAA-19) SZA (NOAA-19 ) Date (TERRA) Time (TERRA) Lat,Lon (TERRA) SZA (TERRA ) Distance(km) Time Diff (sec)
1 01/25/2021 08:01:29 80.00, 91.32 99.99 01/25/2021 08:01:14 79.99, 91.30 99.97 1.22 15
2 01/27/2021 13:34:37 -80.02,-172.14 80.59 01/27/2021 13:34:57 -79.99,-172.06 80.60 2.96 20
3 01/27/2021 14:25:31 79.72, -1.30 99.45 01/27/2021 14:24:29 79.78, -6.11 99.07 95.44 62
4 01/29/2021 19:07:55 80.01, -75.29 98.82 01/29/2021 19:08:39 80.00, -75.44 98.81 3.18 44
5 01/29/2021 19:58:49 -79.99, 92.22 81.19 01/29/2021 19:58:06 -80.00, 92.22 81.20 1.21 43
6 02/01/2021 01:32:08 80.01,-171.31 98.19 02/01/2021 01:31:48 80.01,-171.19 98.18 2.45 20
7 02/03/2021 07:05:16 -80.02, -74.64 82.46 02/03/2021 07:05:31 -80.01, -74.56 82.46 2.05 15
8 02/05/2021 12:38:33 80.02, 22.25 96.88 02/05/2021 12:39:12 80.04, 22.26 96.92 3.07 39



Historial Predications of SNOs between NOAA-19 and TERRA
